GW0609 Weather Reports


time (UTC)temp
F
wind
direction
speed
knots
gust
knots
rain 1hr
in
rain 24hr
in
rain mn
in
humidity
%
barometer
mb
20260507184541 56 209 0.9 10.4 0.00 0.00 0.00 56 1011.3
20260507183045 56 273 2.6 8.7 0.00 0.00 0.00 55 1011.4
20260507181544 57 245 2.6 8.7 0.00 0.00 0.00 52 1011.3
20260507180045 59 277 2.6 9.6 0.00 0.00 0.00 53 1011.5
20260507174540 59 234 4.3 11.3 0.00 0.00 0.00 54 1011.7
20260507173043 58 325 3.5 11.3 0.00 0.00 0.00 57 1011.9
20260507171544 58 244 4.3 11.3 0.00 0.00 0.00 55 1012.0
20260507170042 57 314 3.5 8.7 0.00 0.00 0.00 57 1012.2
20260507164539 54 294 2.6 12.2 0.00 0.00 0.00 58 1012.4
20260507163046 57 308 2.6 9.6 0.00 0.00 0.00 56 1012.5
20260507161545 56 209 2.6 8.7 0.00 0.00 0.00 64 1012.7
20260507160045 56 310 3.5 10.4 0.00 0.00 0.00 54 1012.8
20260507154544 56 273 4.3 9.6 0.00 0.01 0.00 58 1012.9
20260507153041 54 267 3.5 7.8 0.00 0.01 0.00 60 1013.0
20260507151547 55 245 4.3 11.3 0.00 0.01 0.00 58 1013.2
20260507150045 54 292 3.5 7.8 0.00 0.01 0.00 61 1013.5
20260507144545 54 282 2.6 8.7 0.00 0.03 0.00 62 1013.8
20260507143043 53 0 0.9 6.1 0.00 0.03 0.00 66 1013.9
20260507141543 52 202 0.9 7.0 0.00 0.03 0.00 70 1014.0
20260507140101 51 0 0.9 4.3 0.00 0.03 0.00 69 1014.2
20260507134546 51 290 1.7 5.2 0.00 0.03 0.00 66 1014.3
20260507133046 50 0 1.7 5.2 0.00 0.03 0.00 66 1014.3
20260507131547 50 290 0.9 3.5 0.00 0.03 0.00 72 1014.2
20260507130045 49 317 0.9 4.3 0.00 0.03 0.00 71 1014.2
20260507124543 48 0 0.0 3.5 0.00 0.04 0.00 73 1014.4
20260507123039 47 0 0.0 2.6 0.00 0.04 0.00 75 1014.4
20260507121545 46 0 0.0 0.0 0.00 0.04 0.00 83 1014.4
20260507120046 45 0 0.0 0.0 0.00 0.04 0.00 84 1014.4
20260507114542 42 0 0.0 0.0 0.00 0.12 0.00 86 1014.3
20260507113042 40 0 0.0 0.0 0.00 0.12 0.00 88 1014.3
20260507111545 38 0 0.0 0.0 0.00 0.12 0.00 89 1014.1
20260507110039 36 0 0.0 0.0 0.00 0.12 0.00 91 1014.0
20260507104546 34 0 0.0 0.0 0.00 0.28 0.00 91 1013.8
20260507103043 35 0 0.0 0.0 0.00 0.28 0.00 88 1013.8
20260507101558 36 0 0.0 0.0 0.00 0.28 0.00 87 1013.8
20260507100103 36 0 0.0 0.0 0.00 0.28 0.00 87 1013.8
20260507094546 36 0 0.0 0.0 0.00 0.39 0.00 87 1013.8
20260507093038 36 0 0.0 0.0 0.00 0.39 0.00 88 1013.7
20260507091558 37 0 0.0 0.0 0.00 0.39 0.00 86 1014.0
20260507090105 38 0 0.0 0.0 0.00 0.39 0.00 84 1013.8
20260507084541 38 0 0.0 0.0 0.00 0.39 0.00 84 1013.8
20260507083041 38 0 0.0 0.0 0.00 0.39 0.00 83 1013.8
20260507081550 39 0 0.0 0.0 0.00 0.39 0.00 82 1013.9
20260507080043 39 0 0.0 0.0 0.00 0.39 0.00 82 1013.8
20260507074544 40 0 0.0 0.0 0.00 0.43 0.00 81 1014.0
20260507073054 41 0 0.0 0.0 0.00 0.43 0.00 78 1013.9
20260507071539 41 0 0.0 0.0 0.00 0.43 0.00 78 1013.9
20260507070100 42 0 0.0 0.0 0.00 0.43 0.00 78 1013.9
20260507064549 42 0 0.0 0.0 0.00 0.49 0.00 73 1014.0
20260507063041 43 0 0.0 0.0 0.00 0.49 0.00 73 1014.0
20260507061542 43 0 0.0 0.0 0.00 0.49 0.00 75 1014.0
20260507060040 43 0 0.0 2.6 0.00 0.49 0.00 74 1014.2
20260507054543 43 228 1.7 5.2 0.00 0.51 0.00 75 1014.4
20260507053044 43 273 0.9 5.2 0.00 0.51 0.00 75 1014.5
20260507051545 44 259 0.9 3.5 0.00 0.51 0.00 75 1014.7
20260507050043 44 266 1.7 3.5 0.00 0.51 0.00 75 1014.6
20260507044547 44 266 0.9 3.5 0.00 0.51 0.00 73 1014.7
20260507043041 44 266 1.7 4.3 0.00 0.51 0.00 72 1014.6
20260507041547 45 272 1.7 3.5 0.00 0.51 0.00 74 1014.5
20260507040050 45 252 0.9 3.5 0.00 0.51 0.00 72 1014.6
20260507034546 45 0 0.0 0.0 0.00 0.51 0.51 71 1014.3
20260507033044 45 0 0.0 0.0 0.00 0.51 0.51 70 1014.2
20260507031544 46 0 0.0 2.6 0.00 0.51 0.51 68 1014.3
20260507030043 46 261 0.9 2.6 0.00 0.51 0.51 69 1014.0
20260507024545 46 252 1.7 3.5 0.00 0.51 0.51 70 1014.0
20260507023043 46 163 0.9 5.2 0.00 0.51 0.51 68 1013.9
20260507021542 47 0 0.0 3.5 0.00 0.51 0.51 68 1013.5
20260507020050 47 360 1.7 3.5 0.00 0.51 0.51 70 1013.6
20260507014557 47 0 0.0 2.6 0.00 0.51 0.51 72 1013.5
20260507013039 47 202 1.7 3.5 0.00 0.51 0.51 71 1013.7
20260507011539 47 269 1.7 7.0 0.00 0.51 0.51 73 1014.0
20260507010059 48 259 1.7 5.2 0.00 0.51 0.51 73 1014.1
20260507004544 48 243 2.6 7.8 0.00 0.51 0.51 71 1013.9
20260507003046 48 311 1.7 7.8 0.00 0.51 0.51 71 1013.9
20260507001550 49 267 3.5 7.0 0.00 0.51 0.51 74 1013.7
20260507000042 49 263 1.7 6.1 0.00 0.51 0.51 78 1013.5
20260506234546 49 271 0.9 2.6 0.00 0.51 0.51 82 1013.2
20260506233047 50 267 0.9 6.1 0.00 0.51 0.51 82 1013.0
20260506231545 50 282 0.0 3.5 0.00 0.51 0.51 82 1012.7
20260506230040 50 291 1.7 5.2 0.00 0.51 0.51 81 1012.5
20260506224544 50 292 1.7 5.2 0.00 0.51 0.51 81 1012.5
20260506223046 51 290 2.6 6.1 0.00 0.51 0.51 81 1012.4
20260506221548 51 266 3.5 7.0 0.00 0.51 0.51 81 1012.3
20260506220044 51 273 1.7 7.8 0.00 0.51 0.51 81 1012.2
20260506214546 51 296 2.6 6.1 0.00 0.51 0.51 83 1012.2
20260506213039 51 255 1.7 7.0 0.00 0.51 0.51 83 1011.7
20260506211540 50 257 1.7 6.1 0.00 0.51 0.51 85 1011.4
20260506210049 50 254 2.6 6.1 0.00 0.51 0.51 84 1011.6
20260506204542 50 310 0.9 7.8 0.00 0.51 0.51 85 1011.3
20260506203051 50 286 1.7 7.8 0.00 0.51 0.51 87 1011.3
20260506201555 50 305 2.6 8.7 0.00 0.51 0.51 86 1011.3
20260506200046 51 281 2.6 7.0 0.00 0.51 0.51 86 1011.2
20260506194551 51 280 2.6 9.6 0.00 0.51 0.51 86 1011.1
20260506193045 52 290 1.7 8.7 0.00 0.51 0.51 88 1011.1
20260506191543 52 267 2.6 7.8 0.00 0.51 0.51 88 1010.8
20260506190041 52 304 2.6 7.8 0.00 0.51 0.51 88 1010.6